This is the latest recevied weather packets stored in our database for station/object K9APR. If no packets are shown the sender has not sent any weather packets the latest 10 day(s).
| Time | Temp. | Humidity | Pressure | Rain* | Wind** | Luminosity | Snow |
|---|---|---|---|---|---|---|---|
| 1778026462 | 9.44° C | 91% | 1008.4 hPa | 5.84 mm | - | - | - |
| 1778025922 | 9.44° C | 91% | 1008.4 hPa | 5.33 mm | - | - | - |
| 1778024302 | 9.44° C | 91% | 1007.7 hPa | 3.81 mm | - | - | - |
| 1778023761 | 9.44° C | 91% | 1007.8 hPa | 3.3 mm | - | - | - |
| 1778022143 | 10.56° C | 90% | 1007.4 hPa | 3.81 mm | - | - | - |
| 1778021602 | 10.56° C | 90% | 1007.4 hPa | 3.81 mm | - | - | - |
| 1778021063 | 11.11° C | 89% | 1007.6 hPa | 3.3 mm | - | - | - |
| 1778019981 | 14.44° C | 88% | 1007.3 hPa | 2.29 mm | - | - | - |
| 1778018901 | 14.44° C | 90% | 1007.2 hPa | 1.27 mm | - | - | - |
| 1778018362 | 14.44° C | 90% | 1007.2 hPa | 0.76 mm | - | - | - |
| 1778017284 | 14.44° C | 90% | 1007 hPa | 0.25 mm | - | - | - |
| 1778016743 | 14.44° C | 90% | 1007.1 hPa | 0 mm | - | - | - |
| 1778016203 | 14.44° C | 90% | 1007.1 hPa | 0 mm | - | - | - |
| 1778015664 | 14.44° C | 90% | 1007.1 hPa | 0 mm | - | - | - |
| 1778014583 | 14.44° C | 89% | 1007.1 hPa | 0.25 mm | - | - | - |
| 1778014043 | 14.44° C | 89% | 1007.2 hPa | 0.76 mm | - | - | - |
| 1778013906 | 14.44° C | 89% | 1007.1 hPa | 1.27 mm | - | - | - |
| 1778013505 | 14.44° C | 89% | 1007.1 hPa | 1.27 mm | - | - | - |
| 1778012961 | 14.44° C | 89% | 1007.1 hPa | 1.52 mm | - | - | - |
| 1778012423 | 14.44° C | 89% | 1007.2 hPa | 1.78 mm | - | - | - |
| 1778011881 | 14.44° C | 89% | 1007.3 hPa | 2.03 mm | - | - | - |
| 1778011343 | 15° C | 89% | 1007.3 hPa | 2.79 mm | - | - | - |
| 1778010802 | 15° C | 88% | 1007.5 hPa | 2.79 mm | - | - | - |
| 1778010263 | 15° C | 88% | 1007.6 hPa | 2.79 mm | - | - | - |
| 1778009721 | 15° C | 88% | 1007.7 hPa | 2.79 mm | - | - | - |
* Rain latest hour (hover to see other rain measurements)
** Current wind speed in m/s (hover to see current wind gust speed)